SCP
0 -0 -0 -0 -0 -1 -1 -1 -1 -1 -1 -0 -0 -1 -0 -0 -0 -0 -0 -0 -0 -0 -0 -0 0 0 0 -0 -0 0 0 0 0 -0 0 0 0 0 0 0 0 0 0
-0 -0 -0 -0 -1 -1 -1 -1 -1 -0 -0 -0 -0 -0 -0 -0 -0 -0 -0 -0 0 -0 0 0 0 0 0 0 0 0 0 0 0 0 0 0 0 0 0 0 0 0 0
-0 -0 -0 -0 -1 -1 -1 -1 -0 -0 -0 -0 -0 -0 -0 -0 -0 -0 0 0 0 0 0 0 0 0 0 0 0 0 0 0 0 0 0 0 0 0 0 0 0 0 0
0 0 -0 -0 -0 -1 -1 -1 -0 -0 -0 -0 -0 -0 -0 -0 -0 -0 0 0 0 0 0 0 0 0 0 0 0 0 0 0 0 0 0 0 0 0 0 0 0 0 0
0 0 0 -0 -0 -0 -0 -0 -0 -0 -0 -0 -0 -0 -0 0 0 0 0 0 0 0 0 0 0 0 0 0 0 0 0 -0 -0 -0 0 0 0 0 0 0 0 0 0
0 0 0 0 0 -0 -0 -0 -0 -0 -0 -0 -0 0 0 0 0 0 0 0 0 0 0 0 0 0 0 0 0 -0 -0 -0 -0 -0 -0 0 0 0 0 0 0 0 0
0 0 0 0 0 0 0 0 0 0 0 0 0 0 0 0 0 0 0 0 0 0 0 0 0 0 -0 -0 -0 -0 -0 -0 -0 -0 -0 0 0 0 0 0 0 0 0
0 1 1 0 0 0 0 0 0 0 0 0 0 0 0 0 0 0 0 0 -0 -0 0 0 -0 -0 -0 -0 -0 -0 -0 -0 -0 -0 -0 0 0 0 0 0 0 0 0
0 1 1 1 1 1 0 0 0 0 0 0 0 0 0 0 0 0 0 0 0 0 0 0 0 -0 -0 -0 -0 -0 -0 -0 -0 -0 0 0 0 0 0 0 0 0 0
0 0 1 1 1 1 1 1 1 1 0 0 0 0 0 0 0 0 0 0 0 0 0 0 0 0 0 0 0 -0 0 0 0 -0 -0 0 0 0 0 0 0 0 0
0 0 0 1 1 1 1 1 1 1 1 1 1 0 0 0 0 0 0 0 0 0 0 0 0 0 0 -0 -0 -0 0 0 0 0 0 0 0 0 0 0 0 0 0
0 0 0 0 1 1 1 1 1 1 1 1 1 1 1 0 0 0 0 0 0 0 0 0 -0 -0 0 0 0 -0 0 0 0 -0 -0 0 0 0 0 0 0 1 0
0 0 0 1 1 1 1 2 1 1 1 1 1 1 1 1 0 0 0 0 0 0 0 0 0 0 0 0 0 0 0 0 0 0 0 0 0 0 0 0 0 0 1
1 1 1 1 1 1 2 2 1 1 1 1 1 1 1 1 0 0 0 0 0 0 0 0 0 0 0 0 0 0 0 0 0 0 0 -0 -0 0 1 0 0 1 0
2 1 1 1 1 1 2 2 1 1 1 1 1 1 1 1 1 0 0 0 0 0 0 0 0 0 0 0 0 0 0 0 0 0 0 0 0 0 0 0 0 1 1
0 1 1 1 1 1 1 1 1 1 1 1 1 1 1 1 1 1 1 0 0 0 0 0 0 0 0 0 0 0 0 0 0 0 0 0 0 0 1 1 1 1 1
0 0 0 1 1 0 1 1 1 1 1 1 1 1 1 1 1 1 1 1 1 0 0 0 0 0 0 0 0 0 0 0 0 0 0 0 0 1 1 1 1 1 1
0 0 0 0 0 0 0 1 1 0 0 0 0 1 1 1 1 1 1 1 1 0 0 0 0 0 0 0 0 0 0 0 0 0 0 0 0 0 1 0 0 1 1
0 0 1 1 1 1 0 0 1 2 1 0 0 0 0 1 1 2 1 1 1 0 0 0 0 0 0 0 0 0 0 0 0 0 0 0 1 1 0 1 1 1 1
0 0 0 0 0 0 0 0 0 1 1 1 1 1 0 0 1 1 1 1 1 1 0 0 0 0 0 0 0 0 0 0 0 0 0 1 0 1 1 1 1 2 1
0 0 0 0 0 0 0 0 0 1 1 2 2 2 1 1 1 1 1 1 1 1 1 1 1 0 0 0 0 0 0 0 0 0 0 0 0 1 1 1 1 1 1
0 0 0 0 0 0 0 0 0 0 0 0 0 0 1 1 1 1 0 1 1 1 1 1 1 1 1 0 0 0 0 0 0 0 1 1 0 1 2 2 2 1 1
0 0 0 0 0 0 0 0 0 0 0 0 0 0 0 0 0 1 1 1 1 1 1 1 1 1 1 0 0 0 0 0 0 0 0 1 1 1 1 1 1 1 1
0 0 0 0 0 0 0 0 0 0 0 0 0 0 0 0 0 0 0 0 1 1 1 1 1 1 1 1 1 1 0 0 0 0 0 0 1 1 1 1 1 1 1
0 0 0 0 0 0 0 0 0 0 0 0 0 0 0 0 0 0 0 0 0 0 1 2 1 1 1 1 0 0 0 0 0 0 -0 0 -0 0 1 1 1 2 1
0 0 0 0 0 0 0 0 0 0 0 0 0 0 0 0 0 0 0 0 0 0 0 0 0 0 0 0 0 0 0 0 0 0 0 0 0 -0 -0 1 1 2 2
Wind_Speed_500mb
58 57 55 50 45 42 41 42 42 40 36 32 27 25 26 28 29 30 33 34 30 28 25 22 21 20 20 20 20 20 21 27 28 28 27 28 28 24 20 16 16 16 15
59 61 58 51 46 44 42 43 42 39 36 33 30 31 33 35 36 37 36 33 30 27 25 23 24 25 24 20 19 20 21 23 22 23 24 26 27 29 24 18 15 14 14
57 61 59 53 47 44 43 42 40 37 35 33 34 36 38 39 41 41 38 34 30 26 24 24 26 26 22 21 19 21 24 21 15 15 19 20 21 25 23 19 15 13 13
56 60 59 55 49 45 42 40 39 38 38 39 38 39 40 42 41 39 36 32 27 23 22 22 23 23 21 20 22 24 21 18 14 15 14 14 16 20 20 18 17 15 13
56 58 57 54 51 45 43 40 39 38 39 40 40 40 41 40 39 36 33 30 26 24 23 23 23 23 22 22 22 22 19 13 12 11 12 15 18 18 16 14 16 17 14
53 56 55 54 52 47 44 41 39 37 37 38 39 39 39 37 35 32 29 26 25 24 24 25 24 23 22 21 22 23 21 14 7 6 7 11 18 17 15 13 15 15 14
50 54 55 53 53 49 44 40 38 36 33 35 35 35 36 35 33 31 27 25 23 23 22 21 20 20 21 20 21 23 22 14 8 6 6 10 15 16 15 11 11 13 11
42 52 55 54 53 50 46 42 39 36 34 32 32 32 32 31 31 29 27 25 23 22 20 19 18 18 17 17 18 21 24 20 15 9 7 5 10 11 15 12 11 11 11
43 48 54 55 54 52 49 46 43 40 38 35 34 33 32 29 27 24 23 21 20 20 19 18 17 16 15 14 16 18 20 25 22 15 8 2 3 3 9 10 11 12 10
38 44 48 52 54 55 54 51 48 46 43 41 38 35 32 30 29 28 26 24 21 20 19 18 17 16 15 15 16 18 20 23 23 19 13 7 5 1 5 9 11 12 11
42 40 44 47 50 53 55 54 53 51 48 45 43 40 38 36 35 34 32 30 29 27 25 24 23 22 22 22 21 20 21 23 24 22 15 11 8 6 7 10 13 13 12
45 39 41 44 50 54 55 55 54 52 54 54 52 50 47 42 38 35 34 32 33 33 33 33 32 31 31 28 25 25 21 26 31 27 22 17 15 12 9 12 13 16 13
44 46 45 49 49 54 57 57 57 57 55 56 56 56 52 50 48 47 43 43 42 42 43 42 41 41 39 35 32 32 28 27 29 34 29 26 21 19 13 11 12 15 17
52 55 52 50 48 55 59 59 56 56 55 57 55 55 56 55 55 53 53 45 46 45 48 45 45 44 42 40 37 37 40 36 33 34 32 32 31 25 18 13 13 12 17
42 44 49 53 53 51 53 56 57 56 53 47 45 47 52 58 59 57 58 55 52 53 50 49 48 49 48 46 45 44 43 42 39 38 36 33 30 27 21 19 17 18 15
23 30 37 48 62 56 51 49 52 53 48 44 42 42 43 51 56 59 61 64 62 60 56 53 55 56 55 52 52 51 49 48 44 44 47 43 36 34 30 30 24 26 24
18 28 32 42 55 60 57 47 45 42 36 39 38 41 40 43 47 55 59 64 62 63 61 62 59 57 59 59 62 58 57 52 51 49 48 44 43 43 40 37 34 35 30
24 25 33 36 46 56 56 43 40 37 40 43 45 44 46 42 44 44 46 52 52 56 59 65 65 63 63 64 64 67 61 57 56 53 49 47 47 46 45 44 43 43 43
35 22 27 29 37 48 54 43 44 40 38 35 35 41 45 48 49 47 49 53 56 56 54 60 64 65 67 68 68 65 68 68 67 58 58 55 54 52 52 48 45 47 45
34 27 26 28 32 44 45 41 44 45 47 47 43 41 46 49 51 55 55 58 61 62 62 62 60 66 72 73 70 71 71 68 72 69 67 62 61 58 57 57 51 50 49
38 32 30 37 47 50 53 49 50 52 52 42 47 44 45 49 49 50 53 57 59 67 69 71 73 71 77 79 78 80 82 78 75 79 72 70 72 67 62 63 62 54 53
46 45 43 45 49 50 51 50 51 47 47 46 48 50 50 47 52 56 61 58 62 66 67 70 76 80 78 81 77 70 72 77 83 91 84 80 76 75 69 67 65 59 61
55 58 59 55 57 56 51 46 44 39 30 26 29 34 37 41 43 43 43 40 45 49 58 68 67 70 79 73 72 53 38 41 58 70 71 77 81 81 78 75 73 68 67
67 66 61 58 55 50 45 38 32 26 21 22 29 38 45 46 45 42 42 38 37 46 50 50 53 66 68 70 88 92 101 92 75 44 60 45 67 79 90 85 77 76 71
73 67 58 51 47 41 33 26 20 18 27 35 41 44 46 51 51 45 42 39 33 28 32 43 41 47 57 68 72 77 82 85 71 97 74 90 97 76 84 93 85 78 71
72 64 56 47 37 26 20 18 20 23 28 29 37 41 42 43 44 47 46 44 39 36 34 39 36 37 45 57 68 78 86 85 69 72 90 85 102 123 91 66 74 83 76
Wind_Direction_500mb
169 164 162 162 163 163 164 163 164 167 168 167 166 167 166 166 162 155 151 148 145 144 140 137 137 137 131 124 117 117 121 116 102 97 82 71 62 55 46 50 60 69 75
168 166 164 164 165 167 167 167 166 167 169 171 170 163 159 159 155 152 151 150 149 147 145 141 138 134 131 128 124 129 125 123 102 96 81 67 58 50 40 39 46 55 72
169 168 166 165 168 170 169 167 167 168 171 168 163 159 157 155 155 155 156 157 156 154 148 144 142 139 139 138 136 135 127 125 119 107 87 76 55 44 35 32 36 45 56
170 170 169 167 168 172 170 168 167 166 167 164 160 158 157 158 158 159 160 160 159 155 149 147 146 144 147 151 153 150 143 134 121 109 87 67 54 37 31 26 31 36 48
174 170 171 171 169 175 173 171 168 166 166 163 162 160 159 161 161 163 165 165 162 158 155 155 155 155 159 162 164 163 153 137 117 101 81 70 58 37 25 20 23 22 32
174 173 175 175 175 177 177 175 172 170 169 167 166 166 167 168 168 170 172 171 168 167 167 167 164 164 165 168 168 169 169 162 152 109 98 75 62 40 32 28 14 10 15
176 176 178 179 179 181 181 181 179 176 176 175 174 175 177 178 179 180 182 181 178 179 179 177 173 170 170 169 170 172 174 185 198 163 127 96 75 47 22 24 12 360 3
183 180 182 183 184 185 186 187 188 187 185 184 184 187 190 191 191 191 190 190 190 190 191 191 187 183 179 174 174 177 187 196 196 197 158 121 76 54 26 10 356 358 350
186 184 185 188 188 190 192 193 194 194 196 197 196 195 196 200 202 205 205 203 203 205 204 203 204 201 193 185 183 185 192 210 207 213 205 182 87 65 26 8 340 341 346
181 190 193 195 196 196 198 199 201 202 204 205 207 207 207 207 207 207 209 212 217 220 221 221 221 220 212 205 199 195 199 207 219 215 211 210 207 205 342 354 326 328 328
185 190 197 202 205 206 206 206 206 207 210 212 215 217 218 215 215 215 215 214 216 217 222 226 230 230 226 219 213 209 213 216 218 215 214 219 235 241 285 324 313 311 312
192 195 197 204 209 209 211 211 213 213 214 215 218 221 223 225 225 227 227 226 225 225 227 228 230 231 234 232 227 218 220 220 219 219 223 232 240 244 257 300 303 294 298
209 205 207 207 211 213 215 215 217 218 220 222 225 226 228 231 232 231 230 227 230 229 228 232 233 234 234 236 233 228 224 221 218 219 225 232 234 245 253 291 289 285 287
221 215 214 217 217 217 220 220 223 223 225 227 229 232 235 237 238 242 246 242 245 244 245 239 246 248 248 246 242 239 237 232 227 228 236 244 244 238 239 249 263 266 274
236 237 236 231 230 223 225 226 228 230 235 237 238 241 243 247 249 251 252 252 250 255 252 254 251 253 256 256 254 249 244 244 242 240 246 247 248 235 247 248 261 264 257
215 221 229 241 234 226 225 224 231 234 238 242 243 246 252 253 254 256 258 258 257 256 257 259 257 258 258 256 257 258 256 250 247 245 247 246 245 248 251 247 256 259 263
225 208 220 230 236 229 221 218 226 232 230 238 249 248 256 268 269 263 265 265 266 266 266 265 263 262 261 260 257 256 258 252 251 251 248 249 247 250 256 254 253 253 257
254 205 207 215 230 226 217 220 218 223 243 251 252 255 257 268 274 272 273 274 273 271 271 267 264 262 262 261 261 256 253 254 253 249 248 252 252 254 255 255 255 256 256
260 229 202 207 220 220 214 219 225 235 254 261 269 269 272 274 268 271 272 277 280 278 274 271 268 262 263 263 265 267 257 252 251 252 251 252 254 252 249 244 252 258 261
249 239 212 204 193 209 219 221 234 248 260 272 269 274 281 289 286 279 281 285 287 285 281 276 270 268 265 267 268 269 266 262 259 254 252 254 252 250 247 249 252 256 261
228 219 206 199 199 204 209 218 232 245 252 264 263 264 269 277 280 282 282 286 286 286 283 281 277 272 270 268 268 269 269 264 262 261 259 259 255 248 247 251 254 258 265
221 212 207 201 200 201 207 217 227 235 244 253 256 270 278 282 272 271 276 278 281 281 281 280 278 277 272 271 273 284 283 279 268 263 260 261 264 252 251 251 252 259 267
215 209 201 197 196 198 200 207 215 223 238 256 271 278 283 287 286 284 283 282 278 281 278 275 275 277 272 274 275 279 287 273 283 275 271 273 270 258 252 252 255 259 264
210 201 197 196 195 194 199 205 214 229 254 283 295 296 295 299 297 294 290 294 290 284 286 290 289 273 268 265 262 259 264 270 289 274 261 288 289 267 257 255 255 261 261
196 193 189 186 186 192 202 219 245 286 310 311 310 306 302 297 298 302 304 302 296 285 280 277 282 285 275 266 267 265 260 272 267 258 290 274 275 286 268 259 259 256 259
183 180 179 181 185 197 218 246 275 301 307 308 310 305 298 294 295 307 312 314 311 303 296 287 289 279 272 273 271 268 253 264 247 259 249 259 255 266 267 277 272 262 256
Wind_Speed_850mb
58 57 55 50 45 42 41 42 42 40 36 32 27 25 26 28 29 30 33 34 30 28 25 22 21 20 20 20 20 20 21 27 28 28 27 28 28 24 20 16 16 16 15
59 61 58 51 46 44 42 43 42 39 36 33 30 31 33 35 36 37 36 33 30 27 25 23 24 25 24 20 19 20 21 23 22 23 24 26 27 29 24 18 15 14 14
57 61 59 53 47 44 43 42 40 37 35 33 34 36 38 39 41 41 38 34 30 26 24 24 26 26 22 21 19 21 24 21 15 15 19 20 21 25 23 19 15 13 13
56 60 59 55 49 45 42 40 39 38 38 39 38 39 40 42 41 39 36 32 27 23 22 22 23 23 21 20 22 24 21 18 14 15 14 14 16 20 20 18 17 15 13
56 58 57 54 51 45 43 40 39 38 39 40 40 40 41 40 39 36 33 30 26 24 23 23 23 23 22 22 22 22 19 13 12 11 12 15 18 18 16 14 16 17 14
53 56 55 54 52 47 44 41 39 37 37 38 39 39 39 37 35 32 29 26 25 24 24 25 24 23 22 21 22 23 21 14 7 6 7 11 18 17 15 13 15 15 14
50 54 55 53 53 49 44 40 38 36 33 35 35 35 36 35 33 31 27 25 23 23 22 21 20 20 21 20 21 23 22 14 8 6 6 10 15 16 15 11 11 13 11
42 52 55 54 53 50 46 42 39 36 34 32 32 32 32 31 31 29 27 25 23 22 20 19 18 18 17 17 18 21 24 20 15 9 7 5 10 11 15 12 11 11 11
43 48 54 55 54 52 49 46 43 40 38 35 34 33 32 29 27 24 23 21 20 20 19 18 17 16 15 14 16 18 20 25 22 15 8 2 3 3 9 10 11 12 10
38 44 48 52 54 55 54 51 48 46 43 41 38 35 32 30 29 28 26 24 21 20 19 18 17 16 15 15 16 18 20 23 23 19 13 7 5 1 5 9 11 12 11
42 40 44 47 50 53 55 54 53 51 48 45 43 40 38 36 35 34 32 30 29 27 25 24 23 22 22 22 21 20 21 23 24 22 15 11 8 6 7 10 13 13 12
45 39 41 44 50 54 55 55 54 52 54 54 52 50 47 42 38 35 34 32 33 33 33 33 32 31 31 28 25 25 21 26 31 27 22 17 15 12 9 12 13 16 13
44 46 45 49 49 54 57 57 57 57 55 56 56 56 52 50 48 47 43 43 42 42 43 42 41 41 39 35 32 32 28 27 29 34 29 26 21 19 13 11 12 15 17
52 55 52 50 48 55 59 59 56 56 55 57 55 55 56 55 55 53 53 45 46 45 48 45 45 44 42 40 37 37 40 36 33 34 32 32 31 25 18 13 13 12 17
42 44 49 53 53 51 53 56 57 56 53 47 45 47 52 58 59 57 58 55 52 53 50 49 48 49 48 46 45 44 43 42 39 38 36 33 30 27 21 19 17 18 15
23 30 37 48 62 56 51 49 52 53 48 44 42 42 43 51 56 59 61 64 62 60 56 53 55 56 55 52 52 51 49 48 44 44 47 43 36 34 30 30 24 26 24
18 28 32 42 55 60 57 47 45 42 36 39 38 41 40 43 47 55 59 64 62 63 61 62 59 57 59 59 62 58 57 52 51 49 48 44 43 43 40 37 34 35 30
24 25 33 36 46 56 56 43 40 37 40 43 45 44 46 42 44 44 46 52 52 56 59 65 65 63 63 64 64 67 61 57 56 53 49 47 47 46 45 44 43 43 43
35 22 27 29 37 48 54 43 44 40 38 35 35 41 45 48 49 47 49 53 56 56 54 60 64 65 67 68 68 65 68 68 67 58 58 55 54 52 52 48 45 47 45
34 27 26 28 32 44 45 41 44 45 47 47 43 41 46 49 51 55 55 58 61 62 62 62 60 66 72 73 70 71 71 68 72 69 67 62 61 58 57 57 51 50 49
38 32 30 37 47 50 53 49 50 52 52 42 47 44 45 49 49 50 53 57 59 67 69 71 73 71 77 79 78 80 82 78 75 79 72 70 72 67 62 63 62 54 53
46 45 43 45 49 50 51 50 51 47 47 46 48 50 50 47 52 56 61 58 62 66 67 70 76 80 78 81 77 70 72 77 83 91 84 80 76 75 69 67 65 59 61
55 58 59 55 57 56 51 46 44 39 30 26 29 34 37 41 43 43 43 40 45 49 58 68 67 70 79 73 72 53 38 41 58 70 71 77 81 81 78 75 73 68 67
67 66 61 58 55 50 45 38 32 26 21 22 29 38 45 46 45 42 42 38 37 46 50 50 53 66 68 70 88 92 101 92 75 44 60 45 67 79 90 85 77 76 71
73 67 58 51 47 41 33 26 20 18 27 35 41 44 46 51 51 45 42 39 33 28 32 43 41 47 57 68 72 77 82 85 71 97 74 90 97 76 84 93 85 78 71
72 64 56 47 37 26 20 18 20 23 28 29 37 41 42 43 44 47 46 44 39 36 34 39 36 37 45 57 68 78 86 85 69 72 90 85 102 123 91 66 74 83 76
Wind_Direction_850mb
169 164 162 162 163 163 164 163 164 167 168 167 166 167 166 166 162 155 151 148 145 144 140 137 137 137 131 124 117 117 121 116 102 97 82 71 62 55 46 50 60 69 75
168 166 164 164 165 167 167 167 166 167 169 171 170 163 159 159 155 152 151 150 149 147 145 141 138 134 131 128 124 129 125 123 102 96 81 67 58 50 40 39 46 55 72
169 168 166 165 168 170 169 167 167 168 171 168 163 159 157 155 155 155 156 157 156 154 148 144 142 139 139 138 136 135 127 125 119 107 87 76 55 44 35 32 36 45 56
170 170 169 167 168 172 170 168 167 166 167 164 160 158 157 158 158 159 160 160 159 155 149 147 146 144 147 151 153 150 143 134 121 109 87 67 54 37 31 26 31 36 48
174 170 171 171 169 175 173 171 168 166 166 163 162 160 159 161 161 163 165 165 162 158 155 155 155 155 159 162 164 163 153 137 117 101 81 70 58 37 25 20 23 22 32
174 173 175 175 175 177 177 175 172 170 169 167 166 166 167 168 168 170 172 171 168 167 167 167 164 164 165 168 168 169 169 162 152 109 98 75 62 40 32 28 14 10 15
176 176 178 179 179 181 181 181 179 176 176 175 174 175 177 178 179 180 182 181 178 179 179 177 173 170 170 169 170 172 174 185 198 163 127 96 75 47 22 24 12 360 3
183 180 182 183 184 185 186 187 188 187 185 184 184 187 190 191 191 191 190 190 190 190 191 191 187 183 179 174 174 177 187 196 196 197 158 121 76 54 26 10 356 358 350
186 184 185 188 188 190 192 193 194 194 196 197 196 195 196 200 202 205 205 203 203 205 204 203 204 201 193 185 183 185 192 210 207 213 205 182 87 65 26 8 340 341 346
181 190 193 195 196 196 198 199 201 202 204 205 207 207 207 207 207 207 209 212 217 220 221 221 221 220 212 205 199 195 199 207 219 215 211 210 207 205 342 354 326 328 328
185 190 197 202 205 206 206 206 206 207 210 212 215 217 218 215 215 215 215 214 216 217 222 226 230 230 226 219 213 209 213 216 218 215 214 219 235 241 285 324 313 311 312
192 195 197 204 209 209 211 211 213 213 214 215 218 221 223 225 225 227 227 226 225 225 227 228 230 231 234 232 227 218 220 220 219 219 223 232 240 244 257 300 303 294 298
209 205 207 207 211 213 215 215 217 218 220 222 225 226 228 231 232 231 230 227 230 229 228 232 233 234 234 236 233 228 224 221 218 219 225 232 234 245 253 291 289 285 287
221 215 214 217 217 217 220 220 223 223 225 227 229 232 235 237 238 242 246 242 245 244 245 239 246 248 248 246 242 239 237 232 227 228 236 244 244 238 239 249 263 266 274
236 237 236 231 230 223 225 226 228 230 235 237 238 241 243 247 249 251 252 252 250 255 252 254 251 253 256 256 254 249 244 244 242 240 246 247 248 235 247 248 261 264 257
215 221 229 241 234 226 225 224 231 234 238 242 243 246 252 253 254 256 258 258 257 256 257 259 257 258 258 256 257 258 256 250 247 245 247 246 245 248 251 247 256 259 263
225 208 220 230 236 229 221 218 226 232 230 238 249 248 256 268 269 263 265 265 266 266 266 265 263 262 261 260 257 256 258 252 251 251 248 249 247 250 256 254 253 253 257
254 205 207 215 230 226 217 220 218 223 243 251 252 255 257 268 274 272 273 274 273 271 271 267 264 262 262 261 261 256 253 254 253 249 248 252 252 254 255 255 255 256 256
260 229 202 207 220 220 214 219 225 235 254 261 269 269 272 274 268 271 272 277 280 278 274 271 268 262 263 263 265 267 257 252 251 252 251 252 254 252 249 244 252 258 261
249 239 212 204 193 209 219 221 234 248 260 272 269 274 281 289 286 279 281 285 287 285 281 276 270 268 265 267 268 269 266 262 259 254 252 254 252 250 247 249 252 256 261
228 219 206 199 199 204 209 218 232 245 252 264 263 264 269 277 280 282 282 286 286 286 283 281 277 272 270 268 268 269 269 264 262 261 259 259 255 248 247 251 254 258 265
221 212 207 201 200 201 207 217 227 235 244 253 256 270 278 282 272 271 276 278 281 281 281 280 278 277 272 271 273 284 283 279 268 263 260 261 264 252 251 251 252 259 267
215 209 201 197 196 198 200 207 215 223 238 256 271 278 283 287 286 284 283 282 278 281 278 275 275 277 272 274 275 279 287 273 283 275 271 273 270 258 252 252 255 259 264
210 201 197 196 195 194 199 205 214 229 254 283 295 296 295 299 297 294 290 294 290 284 286 290 289 273 268 265 262 259 264 270 289 274 261 288 289 267 257 255 255 261 261
196 193 189 186 186 192 202 219 245 286 310 311 310 306 302 297 298 302 304 302 296 285 280 277 282 285 275 266 267 265 260 272 267 258 290 274 275 286 268 259 259 256 259
183 180 179 181 185 197 218 246 275 301 307 308 310 305 298 294 295 307 312 314 311 303 296 287 289 279 272 273 271 268 253 264 247 259 249 259 255 266 267 277 272 262 256